Location: Borgo
(42.3939°N, 9.2791°E)
Time: 18:32:01
(UTC+00:00)

STARLINK-1038 - Pass Details

Date: 27 February 2020
Orbit: 549 x 551 km, 53.0° (Epoch: 01 April)

Event Time Altitude Azimuth Distance (km) Brightness Sun altitude
Rises 18:21:09 0° 246° (WSW) 2,707 8.4 -14.0°
Reaches altitude 10° 18:23:25 10° 251° (WSW) 1,816 7.4 -14.4°
Maximum altitude 18:27:28 53° 329° (NNW) 681 4.3 -15.2°
Enters shadow 18:30:31 17° 42° (NE) 1,447 5.4 -15.7°
